Location: Unspecified
(0.0000°N, 0.0000°E)
Time: 07:11:15
(UTC+00:00)

Transit 2A Rocket - Visible Passes

Search period start: 06 February 2016 00:00
Search period end: 16 February 2016 00:00
Orbit: 592 x 913 km, 66.7° (Epoch: 05 February)

Date Brightness Start Highest point End Pass type
(mag) Time Alt. Az. Time Alt. Az. Time Alt. Az.
08 Feb 7.5 20:46:24 10° SSW 20:46:50 12° SSW 20:46:50 12° SSW visible
09 Feb 6.0 20:04:11 10° S 20:06:26 28° S 20:06:26 28° S visible
10 Feb 5.7 19:22:43 10° SSE 19:26:08 25° ESE 19:26:08 25° ESE visible
11 Feb 6.6 18:43:10 10° SE 18:44:09 11° ESE 18:45:07 10° E visible
11 Feb 6.4 20:22:40 10° SW 20:25:56 28° W 20:25:56 28° W visible
12 Feb 4.6 19:39:55 10° SSW 19:44:21 72° WNW 19:45:51 39° N visible
13 Feb 4.8 18:57:54 10° S 19:02:11 45° ESE 19:05:53 12° NE visible
14 Feb 8.5 05:48:24 10° ENE 05:49:18 10° ENE 05:50:13 10° E visible
14 Feb 7.2 19:59:30 10° WSW 20:02:12 16° WNW 20:04:53 10° NNW visible
15 Feb 5.9 19:15:59 10° SW 19:20:04 37° WNW 19:24:02 10° N visible
